Regional Weather Roundup
Issued by NWS

Home | Current Version | Previous Version | Text Only | Print | Product List | Glossary Off
Versions: 1 2 3 4 5 6 7 8 9 10 11 12 13 14 15 16 17 18 19 20 21 22 23 24 25 26 27

000
ASUS45 KTFX 292310
RWRMT
MONTANA REGIONAL WEATHER ROUNDUP
NATIONAL WEATHER SERVICE GREAT FALLS MT
500 PM MDT FRI APR 29 2016

NOTE: "FAIR" INDICATES FEW OR NO CLOUDS BELOW 12000 FEET WITH NO
SIGNIFICANT WEATHER AND/OR OBSTRUCTIONS TO VISIBILITY.

MTZ001>007-043-300000-
WEST OF THE DIVIDE

CITY           SKY/WX    TMP DP  RH WIND       PRES   REMARKS
KALISPELL      CLOUDY    52  31  44 N3        29.93S
MISSOULA       CLOUDY    52  33  48 N10       29.91S
BUTTE          CLOUDY    48  27  44 CALM      29.85F
MULLAN PASS    FLURRIES  36  28  73 CALM      29.92R
ANACONDA         N/A     46  32  57 N6        29.86R
DEER LODGE       N/A     48  34  57 NE10      29.87S
EUREKA           N/A     52  34  50 SE7       29.95R
HAMILTON         N/A     48  30  49 NW3       29.89S
LIBBY            N/A     52  34  50 NW3       29.94R
PLAINS           N/A     56  34  43 MISG      29.93S
$$

MTZ008-052>055-300000-
SOUTHWEST MONTANA

CITY           SKY/WX    TMP DP  RH WIND       PRES   REMARKS
BOZEMAN        CLOUDY    53  34  48 S17       29.85S
DILLON         CLOUDY    47  36  65 SE18      29.83R
ENNIS          PTSUNNY   52  32  46 NW17G24   29.89R
THREE FORKS      N/A     58   7  13 SW5       29.87S
TWIN BRIDGES     N/A     53  32  45 E14       29.85S
$$

MTZ009-010-012-014-046-048-049-054-300000-
EAST SLOPES AND CENTRAL MONTANA

CITY           SKY/WX    TMP DP  RH WIND       PRES   REMARKS
CUT BANK       CLOUDY    49  30  48 SE9       29.94F
GREAT FALLS    CLOUDY    51  30  44 N9        29.92S
HELENA         PTSUNNY   54  28  36 NW8       29.87F
CHOTEAU          N/A     50  32  50 E10       29.94S
CONRAD           N/A     51  38  61 NE8       29.98R
$$

MTZ011-013-016-021-045-047-050-051-300000-
NORTH CENTRAL MONTANA

CITY           SKY/WX    TMP DP  RH WIND       PRES   REMARKS
HAVRE          CLOUDY    53  36  52 E17       29.99R
LEWISTOWN      CLOUDY    47  32  56 E15       29.98R
N BAR RANCH    CLOUDY    43  32  65 E12       30.01R
CHINOOK          N/A     54  36  50 E15       30.01R
$$

MTZ017>020-022>027-061-062-300000-
NORTHEAST MONTANA

CITY           SKY/WX    TMP DP  RH WIND       PRES   REMARKS
GLASGOW        SUNNY     58  31  35 E17G23    30.05R
JORDAN           N/A     52  37  56 SE17      30.03R
SIDNEY         CLOUDY    57  28  33 SE8       30.11S
WOLF POINT     MOSUNNY   60  32  34 SE9       30.07F
PLENTYWOOD       N/A     59  25  27 SE15G22   30.11R
POPLAR           N/A     57  30  35 E13G20    30.09S
$$

MTZ028>42-056>058-300000-
SOUTHCENTRAL AND SOUTHEAST MONTANA

CITY           SKY/WX    TMP DP  RH WIND       PRES   REMARKS
BAKER          LGT RAIN  48  35  60 SE12      30.08S
BILLINGS       CLOUDY    49  31  49 E13       29.97S
LIVINGSTON     CLOUDY    47  33  58 E22G30    29.90S
MILES CITY     CLOUDY    50  36  58 SE17      30.05R
FORSYTH          N/A     52  37  58 E17       30.01S
LAUREL           N/A     50  28  42 NE8       29.96R
ROUNDUP          N/A     48  31  52 E8        29.91S
$$

REGIONAL REPORTS...DAKOTAS

CITY           SKY/WX    TMP DP  RH WIND       PRES   REMARKS
WILLISTON      CLOUDY    61  26  26 SE14      30.12R
MINOT          SUNNY     65  22  19 E17G23    30.14R
DICKINSON      CLOUDY    55  26  32 E14       30.06F
BEACH          CLOUDY    54  32  43 E15       30.11S
CROSBY           N/A     59  16  18 E14       30.15R
WATFORD CITY     N/A     59  27  29 SE7       30.11S
BISMARCK       MOSUNNY   62  33  33 E17       30.09F
GRAND FORKS    MOSUNNY   63  30  28 NE16      30.14S
FARGO          SUNNY     65  31  28 VRB5      30.10R
BUFFALO SD       N/A     51  32  48 E9        29.99F
RAPID CITY     CLOUDY    45  34  65 E12       30.04S
$$

REGIONAL REPORTS...WYOMING/IDAHO/WASHINGTON

CITY           SKY/WX    TMP DP  RH WIND       PRES   REMARKS
GILLETTE       CLOUDY    45  35  68 NE12      29.96F
SHERIDAN       CLOUDY    47  31  53 SE8       29.97F
BUFFALO WY       N/A    N/A N/A N/A MISG      29.98S
CODY           CLOUDY    45  30  57 CALM      29.93S
YELLOWSTONE LA   N/A     41  20  43 E5        29.88S
IDAHO FALLS    LGT RAIN  48  38  68 S10       29.84S
SALMON         CLOUDY    50  34  53 NW7       29.84R
BOISE          MOSUNNY   63  36  36 NW22G28   29.84F
SPOKANE        CLOUDY    50  42  74 W3        29.95S
$$

REGIONAL REPORTS...ALBERTA

CITY           SKY/WX    TMP DP  RH WIND       PRES   REMARKS
EDMONTON       MOSUNNY   63  30  29 SE16G24   29.96S
CALGARY        PTSUNNY   50  32  50 SE15G23   29.96S
LETHBRIDGE     CLOUDY    50  34  53 E10       29.97R
MEDICINE HAT   CLOUDY    54  34  47 S8        30.01R
WATERTON GATE    N/A     43  32  65 N3          N/A
CARDSTON         N/A     48  28  46 SE9         N/A
MILK RIVER       N/A     50  32  50 S9          N/A
ONEFOUR          N/A     50  34  53 SE12G17     N/A
$$

REGIONAL REPORTS...SASKATCHEWAN

CITY           SKY/WX    TMP DP  RH WIND       PRES   REMARKS
SWIFT CURRENT  PTSUNNY   59  23  25 SE15G24   30.04S
REGINA         MOSUNNY   63  12  14 SE16G30   30.12S
SASKATOON      SUNNY     64  16  15 SE20G26   30.13S
CYPRESS HILLS    N/A     48  32  53 SE14G20     N/A
VAL MARIE        N/A     55  28  35 SE14G21     N/A
ROCKGLEN         N/A     55  25  30 SE12G20     N/A
ASSINIBOIA       N/A     66  25  20 S16G23      N/A
$$




USA.gov is the U.S. government's official web portal to all federal, state and local government web resources and services.